Regional Weather Roundup
Issued by NWS Grand Forks, ND

Home | Current Version | Previous Version | Text Only | Print | Product List | Glossary On
Versions: 1 2 3 4 5 6 7 8 9 10 11 12 13 14 15 16 17 18 19 20 21 22 23 24 25 26 27 28 29 30 31 32 33 34 35 36 37 38 39 40 41 42 43 44 45 46 47 48 49 50
000
ASUS43 KFGF 222010
RWRFGF
PRAIRIE TO PINES  WEATHER ROUNDUP
NATIONAL WEATHER SERVICE EASTERN NORTH DAKOTA/GRAND FORKS ND
200 PM CST MON DEC 22 2014

 **SATELLITE DATA USED TO AUGMENT SKY COVER AT AUTOMATED STATIONS**
 *****  WEATHER ACROSS EASTERN NORTH DAKOTA  *****

CITY           SKY/WX    TMP DP  RH WIND       PRES   REMARKS
GRAND FORKS    LGT RAIN  36  36 100 E6        29.54R FOG
GRAND FRKS AFB CLOUDY    36  36 100 E6        29.54S FOG
DEVILS LAKE    CLOUDY    34  34 100 NE12      29.52S
FARGO          CLOUDY    41  38  89 SE12      29.50R
WAHPETON ARPT  CLOUDY    36  34  93 SE10      29.48S
$$

 ***** WEATHER ACROSS CENTRAL AND WESTERN NORTH DAKOTA  *****

CITY           SKY/WX    TMP DP  RH WIND       PRES   REMARKS
BISMARCK       CLOUDY    31  29  92 N13       29.51S WCI  21
MINOT          CLOUDY    28  26  92 N15       29.57R WCI  16
JAMESTOWN      LGT SNOW  34  33  96 NE9       29.46R VSB 3/4
MINOT AFB      CLOUDY    28  28 100 N10       29.58S WCI  19
GARRISON         N/A     29  27  92 N9        29.55R WCI  20
WILLISTON      CLOUDY    27  22  81 N13       29.64R WCI  16
DICKINSON      SNOW      26  23  88 NW18      29.54R VSB 1/2 WCI  13
HETTINGER      LGT SNOW  27  22  81 NW23G32   29.54R WCI  12
$$

 *****  OTHER AIRPORT OBSERVATIONS IN OUR AREA  *****

CITY           SKY/WX    TMP DP  RH WIND       PRES   REMARKS
WALHALLA       MIX PCPN  32  32 100 NE6       29.60R
GRAFTON AIRPOR NOT AVBL
VALLEY CITY AR LGT RAIN  36  36 100 E6        29.47S VSB<1/4
CANDO          CLOUDY    32  32 100 NE9       29.55S WCI  24
CAVALIER APRT  CLOUDY    34  34 100 NE7       29.59  FOG
GWINNER        CLOUDY    39  39 100 E13       29.45S VSB 1/2
SHEYENNE NWR     N/A     38  38 100 E9        29.95S
ROLLA          MIX PCPN  32  32 100 N13       29.58R WCI  22
 ***** THE ABOVE OBSERVATIONS ARE NON NWS ARE NOT QUALITY
       CONTROLLED AND MAY MIS-REPORT RAIN FOR SNOW...
$$

  *****  WEATHER ACROSS NORTHERN MINNESOTA  *****

CITY           SKY/WX    TMP DP  RH WIND       PRES   REMARKS
FLAG ISLAND    CLOUDY    34  34 100 E6        29.63R FOG
WARROAD        CLOUDY    34  30  86 E7        29.62R FOG
ROSEAU         CLOUDY    36  30  80 E6        29.60S HAZE
HALLOCK        CLOUDY    36  34  93 NE7       29.58R FOG
THF RVR FALLS  CLOUDY    36  36 100 E7        29.56S
BAUDETTE       CLOUDY    35  33  92 E7        29.61R
WASKISH        CLOUDY    37  36  93 CALM      29.60R
CROOKSTON      MIX PCPN  37  36  93 E8        29.55S
STEPHEN NDAWN    N/A     36  34  93 E6          N/A
GREENBUSH NDAW   N/A     34  34 100 NE8         N/A
$$
  *****  WEATHER ACROSS CENTRAL AND WEST MINNESOTA  *****

CITY           SKY/WX    TMP DP  RH WIND       PRES   REMARKS
FOSSTON        CLOUDY    36  36 100 SE7       29.55R
BEMIDJI        CLOUDY    35  34  96 SE10      29.56S
PARK RAPIDS    MIX PCPN  36  34  92 SE6       29.55R
ELBOW LAKE     LGT RAIN  36  35  97 E13       29.48S
WADENA         DRIZZLE   36  34  93 SE9       29.53S
DETROIT LAKES  CLOUDY    36  36 100 SE12      29.53R FOG
MOORHEAD       CLOUDY    39  39 100 E8        29.51R FOG
FERGUS FALLS   CLOUDY    37  36  93 SE12      29.52S
MORRIS MN      LGT RAIN  37  36  93 SE16      29.46S
STAPLES        DRIZZLE   36  34  93 E7        29.55S
$$
  *****  WEATHER ELSEWHERE ACROSS MINNESOTA  *****

CITY           SKY/WX    TMP DP  RH WIND       PRES   REMARKS
DULUTH         SNOW      34  32  92 SE14      29.64F VSB 1/4 WCI  25
INTRNTL FALLS  LGT RAIN  35  33  92 SE7       29.64S
ELY            DRIZZLE   34  34 100 SE7       29.67S
CLOQUET        FOG       34  34 100 E8        29.64S VSB 1/4
WHEATON        LGT RAIN  36  36 100 E17       29.47S
BRAINERD       LGT RAIN  35  34  96 SE8       29.58S FOG
HIBBING        CLOUDY    35  32  88 SE12      29.64S FOG
ALEXANDRIA     CLOUDY    35  33  92 E15G24    29.51S
SAINT CLOUD    LGT RAIN  37  34  89 E9        29.56F FOG
MINNEAPOLIS    LGT RAIN  35  33  92 E13       29.60S FOG
$$

  *****  WEATHER ACROSS SOUTH DAKOTA  *****

CITY           SKY/WX    TMP DP  RH WIND       PRES   REMARKS
SIOUX FALLS    DRZL/FOG  39  37  92 E3        29.39F VSB 3/4
BROOKINGS      NOT AVBL
WATERTOWN      CLOUDY    37  35  92 S10       29.38S
HURON          CLOUDY    34  31  88 NW9       29.40F
SISSETON         N/A     38  38 100 SE13      29.42S
ABERDEEN       LGT RAIN  37  34  89 N6        29.40F FOG
MITCHELL       CLOUDY    37  35  92 NW9       29.42S
PIERRE         CLOUDY    35  30  82 NW21G31   29.44R WCI  24
MOBRIDGE       LGT SNOW  31  29  92 N16       29.43R FOG     WCI  20
RAPID CITY     PTSUNNY   42  23  46 NW31G41   29.50S
$$

  *****  SOME WEATHER IN NEARBY STATES *****

CITY           SKY/WX    TMP DP  RH WIND       PRES   REMARKS
GLASGOW MT     CLOUDY    30  25  81 N20       29.73R WCI  17
GREAT FALLS MT CLOUDY    41  19  41 NW14      29.89R
CHEYENNE WY    CLOUDY    32  18  56 NW15G28   29.65F WCI  22
SCOTTSBLUFF NE MOSUNNY   41  23  48 NW24G30   29.63S
OMAHA NE       LGT RAIN  43  42  97 S7        29.42F FOG
DES MOINES IA  LGT RAIN  41  38  89 SE8       29.48F FOG
DAVENPORT IA   LGT RAIN  36  33  89 SE14      29.60F FOG
CHICAGO IL     LGT RAIN  36  33  89 E10       29.73F FOG
EAU CLAIRE WI  CLOUDY    38  33  82 SE13      29.66F
LA CROSSE WI   LGT RAIN  40  34  79 SE10      29.65F
$$

  *****  SOME NATIONAL WEATHER *****

CITY           SKY/WX    TMP DP  RH WIND       PRES   REMARKS
LA GUARDIA NY  CLOUDY    41  37  86 NE12      30.24R
RALEIGH NC     DRIZZLE   38  35  89 N6        30.05F FOG
ATLANTA GA     DRZL/FOG  46  44  93 E10       29.91F VSB 1/2
NEW ORLEANS LA MOSUNNY   76  65  68 S18G26    29.71F
OKLAHOMA CITY  PTSUNNY   56  38  50 NW16G26   29.56F
ALBUQUERQUE NM PTSUNNY   59  29  31 W24G31    29.75F
SALT LAKE CITY PTSUNNY   43  35  73 N3        29.99F
LOS ANGELES CA SUNNY     66  58  75 W9        30.00F
BOISE ID       MOSUNNY   45  36  70 NW18G29   30.17S
SEATTLE WA     PTSUNNY   50  40  68 CALM      30.36F
$$

*** WEATHER ACROSS MANITOBA...SASKATCHEWAN AND ONTARIO ***
                ***ONTARIO***

CITY           SKY/WX    TMP DP  RH WIND       PRES   REMARKS
GERALDTON      DRZL/FOG  34  34 100 SE5       29.82  VSB 1
THUNDER BAY    NOT AVBL
SIOUX LOOKOUT  LGT SNOW  34  32  93 E3        29.70F FOG
TORONTO        PTSUNNY   36  27  69 E9        30.09F
BIG TROUT LK   FLURRIES  30  30 100 CALM      29.79R
PICKLE LAKE    LGT SNOW  32  30  93 SE3       29.75R
DRYDEN         CLOUDY    34  34 100 SE6       29.68S
KENORA         CLOUDY    34  32  93 E7        29.65S FOG
$$
                *** MANITOBA***

CITY           SKY/WX    TMP DP  RH WIND       PRES   REMARKS
BRANDON        NOT AVBL
DAUPHIN        LGT SNOW  28  28 100 N9        29.72R WCI  20
ISLAND LAKE    NOT AVBL
PILOT MOUND    NOT AVBL
THE PAS        LGT SNOW  25  23  93 N7        29.83R WCI  17
THOMPSON       FRZ DRZL  19  18  93 NE8       29.89R FOG     WCI   9
WINNIPEG       NOT AVBL
LYNN LAKE      FLURRIES   9   7  92 NE6       29.91R WCI  -1
CHURCHILL      LGT SNOW  19  18  93 N9        29.96R WCI   9
GILLAM         PTCLDY    12   9  85 N5        29.91R WCI   4
$$
                ***SASKATCHEWAN***

CITY           SKY/WX    TMP DP  RH WIND       PRES   REMARKS
ESTEVAN        CLOUDY    28  27  93 NW10      29.64  FOG     WCI  19
KINDERSLEY     CLOUDY    25  23  93 NW9       29.81R WCI  15
LLOYDMINSTER   NOT AVBL
PRINCE ALBERT  CLOUDY    23  21  93 NW3       29.82R
REGINA         NOT AVBL
YORKTON        CLOUDY    27  25  93 N8        29.72R WCI  18
N. BATTLEFORD  PTSUNNY   19  19 100 NW6       29.85R WCI  11
LA RONGE       LGT SNOW  19  18  93 NE3       29.85R
SASKATOON      CLOUDY    21  19  93 N7        29.83R WCI  13
SWIFT CURRENT  LGT SNOW  21  19  93 NW17      29.76R WCI   7
$$
NOTE: THESE ARE AUTOMATED STATIONS WITH LIMITED QUALITY CONTROL
      "FAIR" INDICATES FEW OR NO CLOUDS BELOW 12,000 FEET WITH NO
      SIGNIFICANT WEATHER AND/OR OBSTRUCTIONS TO VISIBILITY.
      SKY/WX - SKY CONDITION AND SIGNIFICANT WEATHER.
      TMP - AIR TEMPERATURE.    DP   - DEWPOINT TEMPERATURE.
      RH  - RELATIVE HUMIDITY.  PRES - PRESSURE.
      HX  - HEAT INDEX.         WCI  - WIND CHILL INDEX.
$



USA.gov is the U.S. government's official web portal to all federal, state and local government web resources and services.